[[{"header":{"parameterUnit":"m.s-1","parameterCategory":1,"la1":30.2991,"la2":30.254,"lo1":-89.0895,"lo2":-89.0444,"dy":0.0017,"dx":0.0017,"nx":28,"ny":28,"refTime":"2025-07-19T03:00:00:Z","depth":0,"parameterNumber":2,"parameterNumberName":"U-component_of_WINDS"},"data":[0,0,0,0,0,0,0,0,0,0,0,0,0,0,0,0,0,0,0,0,0,0,0,0,0,0,0,0,0,0,0,0,0,0,0,0,0,0,0,0,0,0,0,0,0,0,0,0,0,0,0,0,0,0,0,0,0,0,1.3878,1.3878,0,1.3931,1.3932,1.3932,1.3911,1.3909,1.3908,1.3907,1.3962,1.3965,1.3968,0,0,0,0,0,0,0,0,0,0,0,0,0,1.3757,1.376,1.3878,1.3879,1.3879,1.3931,1.3932,1.3932,1.3911,1.3909,1.3908,1.3906,1.3961,1.3965,1.3968,0,0,0,0,0,0,0,0,0,0,0,0,0,1.381,1.376,1.3878,1.3875,1.3875,1.3931,1.3932,1.3932,1.3911,1.3909,1.3907,1.3906,1.396,1.3964,1.3968,1.403,0,0,1.398,1.3982,0,0,0,0,0,0,0,0,1.3807,1.3814,1.3874,1.3875,1.3875,1.3912,1.3909,1.3965,1.3912,1.3897,1.3907,1.3905,1.3947,1.3952,1.3966,1.4033,1.4035,1.3981,1.3983,1.3985,1.3986,0,0,0,0,0,0,0,1.3803,1.3812,1.3899,1.3875,1.3876,1.387,1.3876,1.392,1.3932,1.3899,1.3897,1.3904,1.3947,1.3963,1.3967,1.4036,1.3981,1.3984,1.3987,1.3988,1.4154,1.4156,0,0,0,0,0,0,1.38,1.3809,1.3897,1.39,1.3836,1.3874,1.388,1.3902,1.3932,1.3934,1.3905,1.3902,1.3957,1.3963,1.3969,1.4042,1.3985,1.3989,1.3991,1.4152,1.4154,1.4157,0,0,0,0,0,0,1.3797,1.3808,1.3895,1.3854,1.3865,1.3878,1.3903,1.3904,1.392,1.3937,1.3939,1.3919,1.3955,1.3964,1.4015,1.4044,1.399,1.3994,1.415,1.4153,1.4155,1.419,0,0,0,0,0,0,1.3794,1.3807,1.3831,1.3855,1.3867,1.394,1.3905,1.3907,1.3926,1.3923,1.395,1.3953,1.3955,1.4009,1.4019,1.4048,1.3997,1.4147,1.4151,1.4154,1.4186,1.4194,1.42,0,0,0,0,0,1.3789,1.3839,1.3832,1.3843,1.3898,1.3942,1.3949,1.395,1.3929,1.3953,1.3963,1.3952,1.4039,1.4014,1.4025,1.4057,1.4145,1.415,1.4154,1.4183,1.4192,1.42,0,0,0,0,0,0,1.382,1.3843,1.3835,1.3894,1.3916,1.3938,1.3968,1.396,1.3988,1.3984,1.3984,1.3991,1.4043,1.4055,1.4027,1.4117,1.4089,1.4096,1.4107,1.4116,1.4123,1.4118,1.4,0,0,0,0,0,1.3833,1.3867,1.3885,1.3936,1.3947,1.3956,1.3975,1.3973,1.3996,1.4005,1.402,1.4042,1.4075,1.4096,1.4127,1.4188,1.4192,1.4214,1.4221,1.4227,1.4233,1.4263,1.4273,1.4171,1.4171,1.4171,0,0,1.3861,1.3878,1.39,1.3942,1.3959,1.3993,1.3964,1.4002,1.4027,1.4011,1.406,1.4071,1.4096,1.4151,1.4177,1.4163,1.4262,1.4233,1.4237,1.424,1.4269,1.4279,1.4287,1.4175,1.4174,1.4173,0,0,1.393,1.3947,1.3989,1.4006,1.4031,1.4036,1.4047,1.4069,1.4076,1.4124,1.4112,1.4142,1.4199,1.4216,1.4233,1.4305,1.4295,1.4315,1.4352,1.4382,1.439,1.4397,1.4421,1.443,1.4321,1.4321,1.4321,0,1.3962,1.4013,1.4013,1.4051,1.4069,1.4055,1.4098,1.4114,1.4149,1.4161,1.4145,1.4214,1.423,1.4288,1.4306,1.432,1.4331,1.4312,1.4388,1.4396,1.4402,1.4425,1.4434,1.4324,1.4323,1.4323,1.4323,0,1.405,1.4086,1.4117,1.4149,1.4171,1.4211,1.4216,1.4238,1.4234,1.4241,1.4289,1.4308,1.4341,1.4355,1.4353,1.4412,1.4403,1.4388,1.436,1.4414,1.4435,1.4444,1.4327,1.4326,1.4325,1.4325,0,0,1.4141,1.417,1.4181,1.4194,1.422,1.4247,1.4286,1.4318,1.4336,1.436,1.4391,1.4438,1.4424,1.4442,1.4441,1.4468,1.4521,1.4449,1.445,1.4461,1.4586,1.4596,1.4607,1.4515,1.4516,1.4518,1.4583,0,1.421,1.4278,1.4277,1.434,1.4371,1.4358,1.4391,1.441,1.4417,1.4445,1.4452,1.4485,1.4464,1.4475,1.45,1.4509,1.4546,1.4505,1.4543,1.4545,1.4536,1.4618,1.463,1.4691,1.4592,1.4594,1.4595,0,1.43,1.4325,1.439,1.4409,1.4422,1.4453,1.448,1.4507,1.4528,1.453,1.455,1.4544,1.4583,1.4554,1.4606,1.4578,1.4593,1.46,1.4602,1.4605,1.4572,1.4622,1.4711,1.4719,1.4608,1.4607,1.4606,0,1.4357,1.4407,1.4452,1.4464,1.4487,1.4508,1.4519,1.4538,1.4556,1.458,1.4592,1.4621,1.4636,1.4658,1.466,1.4639,1.4712,1.4684,1.4715,1.4715,1.4731,1.473,1.4822,1.4743,1.4743,1.4742,1.4742,0,1.4434,1.4474,1.4477,1.4505,1.4549,1.4547,1.4591,1.46,1.4616,1.4644,1.4635,1.4662,1.4663,1.469,1.4692,1.4734,1.4742,1.4744,1.4744,1.4745,1.4744,1.4754,1.475,1.4745,1.4744,1.4744,1.4743,0,1.4505,1.4509,1.4557,1.4574,1.4579,1.4611,1.4625,1.4651,1.4656,1.4692,1.4701,1.4709,1.474,1.4744,1.4782,1.4782,1.4832,1.4829,1.4825,1.4824,1.4854,1.4851,1.4956,1.4968,1.4882,1.4883,1.4884,0,1.4553,1.4583,1.4603,1.4621,1.4633,1.4662,1.468,1.4679,1.4698,1.4723,1.4745,1.4775,1.4799,1.485,1.4859,1.4887,1.4883,1.4917,1.4887,1.4886,1.4881,1.4879,1.4881,1.4923,1.4924,1.4925,1.4926,0,1.4638,1.4638,1.4664,1.469,1.4711,1.4732,1.4752,1.4767,1.4768,1.479,1.4821,1.484,1.4877,1.4906,1.4933,1.4944,1.4935,1.4935,1.4943,1.4944,1.494,1.4941,1.484,1.4933,1.4932,1.4931,1.4931,1.4931,1.4698,1.4723,1.474,1.4769,1.4783,1.4801,1.4825,1.4833,1.4859,1.4888,1.4886,1.492,1.4938,1.4973,1.4985,1.5012,1.5,1.5013,1.5016,1.5019,1.5021,1.4936,1.5017,1.5017,1.5017,1.5016,1.5016,0,1.478,1.479,1.4817,1.4843,1.4866,1.4854,1.4875,1.4894,1.4924,1.4941,1.4964,1.4999,1.5027,1.5038,1.5065,1.5084,1.508,1.5091,1.5089,1.5091,1.5031,1.502,1.5093,1.5093,1.5093,1.5093,1.5093,1.5093,1.4826,1.4867,1.4869,1.4917,1.4926,1.4959,1.4971,1.4987,1.5001,1.504,1.5063,1.5069,1.5083,1.5111,1.5136,1.5138,1.5148,1.516,1.5161,1.5104,1.5096,1.5088,1.5078,1.5163,1.5163,1.5219,1.5219,1.522]},{"header":{"parameterUnit":"m.s-1","parameterCategory":1,"la1":30.2991,"la2":30.254,"lo1":-89.0895,"lo2":-89.0444,"dy":0.0017,"dx":0.0017,"nx":28,"ny":28,"refTime":"2025-07-19T03:00:00:Z","depth":0,"parameterNumber":3,"parameterNumberName":"V-component_of_WINDS"},"data":[0,0,0,0,0,0,0,0,0,0,0,0,0,0,0,0,0,0,0,0,0,0,0,0,0,0,0,0,0,0,0,0,0,0,0,0,0,0,0,0,0,0,0,0,0,0,0,0,0,0,0,0,0,0,0,0,0,0,5.0298,5.0298,0,5.0337,5.0337,5.0338,5.0268,5.0265,5.0263,5.0261,5.0297,5.03,5.0303,0,0,0,0,0,0,0,0,0,0,0,0,0,5.0157,5.016,5.0298,5.0298,5.0299,5.0337,5.0337,5.0338,5.0268,5.0265,5.0263,5.026,5.0296,5.0299,5.0303,0,0,0,0,0,0,0,0,0,0,0,0,0,5.0209,5.0161,5.0298,5.0269,5.0266,5.0337,5.0337,5.0338,5.0269,5.0265,5.0262,5.0259,5.0294,5.0299,5.0304,5.0403,0,0,5.0318,5.032,0,0,0,0,0,0,0,0,5.0206,5.0214,5.0272,5.0271,5.0268,5.0294,5.0301,5.036,5.027,5.0268,5.0261,5.0257,5.0298,5.0302,5.0317,5.0404,5.0406,5.0318,5.0321,5.0323,5.0324,0,0,0,0,0,0,0,5.0203,5.0212,5.0313,5.0273,5.0271,5.0252,5.0255,5.0311,5.0302,5.0268,5.0263,5.0269,5.0296,5.0313,5.0318,5.0406,5.0318,5.0322,5.0325,5.0327,5.0574,5.0577,0,0,0,0,0,0,5.0203,5.021,5.0312,5.0314,5.0228,5.0257,5.0261,5.0289,5.0301,5.03,5.0271,5.0265,5.0307,5.0312,5.0319,5.0433,5.0323,5.0328,5.033,5.057,5.0574,5.0578,0,0,0,0,0,0,5.0201,5.0213,5.031,5.0261,5.0272,5.0263,5.0295,5.0292,5.0308,5.0304,5.0302,5.029,5.0304,5.0312,5.0382,5.0433,5.033,5.0334,5.0566,5.0571,5.0576,5.0665,0,0,0,0,0,0,5.0197,5.0213,5.0252,5.0262,5.0275,5.0375,5.0299,5.0295,5.0317,5.0309,5.0321,5.032,5.0302,5.0375,5.0387,5.0438,5.0338,5.0561,5.0568,5.0575,5.0657,5.0673,5.0686,0,0,0,0,0,5.0192,5.0274,5.0254,5.0267,5.0323,5.0378,5.0385,5.0364,5.0322,5.0359,5.0357,5.0319,5.0427,5.0383,5.0395,5.0449,5.0557,5.0566,5.0574,5.0651,5.067,5.0686,0,0,0,0,0,0,5.0269,5.0275,5.0253,5.0341,5.036,5.0366,5.0413,5.0385,5.0415,5.0406,5.0377,5.038,5.0455,5.0459,5.0411,5.0544,5.0485,5.0496,5.0539,5.0557,5.0571,5.0567,5.0341,0,0,0,0,0,5.0296,5.0342,5.0344,5.0422,5.0433,5.0422,5.0445,5.0427,5.0444,5.0451,5.0454,5.0471,5.0507,5.0533,5.0567,5.0658,5.0658,5.0701,5.0715,5.0727,5.0736,5.0782,5.08,5.0606,5.0606,5.0606,0,0,5.0353,5.0362,5.0392,5.0438,5.045,5.0496,5.0429,5.048,5.0513,5.0459,5.0524,5.0527,5.0544,5.0624,5.066,5.063,5.079,5.0738,5.0747,5.075,5.0793,5.0811,5.0828,5.0612,5.0611,5.061,0,0,5.0479,5.0492,5.0557,5.0571,5.059,5.0582,5.0598,5.0609,5.0609,5.0675,5.0634,5.0672,5.0738,5.075,5.0766,5.0896,5.0862,5.0908,5.0982,5.1028,5.1043,5.1056,5.11,5.1117,5.0918,5.0918,5.0918,0,5.0546,5.0615,5.0593,5.0648,5.0668,5.0622,5.0686,5.07,5.073,5.0743,5.071,5.079,5.0798,5.088,5.0912,5.0926,5.0941,5.0905,5.1043,5.1056,5.1068,5.1109,5.1126,5.0923,5.0923,5.0922,5.0922,0,5.0695,5.0744,5.0794,5.0824,5.085,5.0909,5.0894,5.0923,5.0903,5.0898,5.0964,5.0973,5.1007,5.1025,5.1006,5.1104,5.1084,5.1048,5.0987,5.1092,5.113,5.1146,5.0931,5.0929,5.0927,5.0926,0,0,5.087,5.0888,5.0906,5.0918,5.0937,5.0972,5.1029,5.1063,5.1087,5.1109,5.1153,5.1209,5.1175,5.1192,5.1174,5.1214,5.1314,5.1172,5.1172,5.1196,5.1419,5.1445,5.1464,5.1292,5.1295,5.1298,5.1417,0,5.0993,5.1091,5.1073,5.1167,5.121,5.1167,5.1215,5.1231,5.1227,5.1262,5.1257,5.1297,5.125,5.126,5.1298,5.1294,5.1358,5.1285,5.1331,5.1333,5.1326,5.1484,5.1512,5.1624,5.1432,5.1435,5.1436,0,5.115,5.1178,5.1277,5.1287,5.1304,5.1348,5.1377,5.1412,5.1427,5.1422,5.1442,5.1416,5.1469,5.1409,5.1481,5.1432,5.145,5.1451,5.1455,5.1456,5.1389,5.1488,5.166,5.1675,5.146,5.1458,5.1457,0,5.1264,5.1327,5.1393,5.1406,5.142,5.1451,5.1458,5.1471,5.1492,5.1517,5.153,5.1562,5.1578,5.1602,5.1584,5.1543,5.1658,5.1597,5.1652,5.1653,5.1677,5.1675,5.1851,5.1693,5.1693,5.1692,5.1692,0,5.1401,5.1463,5.1445,5.1485,5.1552,5.153,5.1597,5.1598,5.161,5.1648,5.1614,5.1651,5.1626,5.166,5.1647,5.1707,5.1715,5.1711,5.1706,5.1713,5.1713,5.1722,5.1713,5.1697,5.1696,5.1695,5.1694,0,5.1539,5.153,5.1599,5.1607,5.161,5.1659,5.1664,5.1701,5.1696,5.1745,5.1756,5.1746,5.1785,5.177,5.1811,5.1802,5.1878,5.1864,5.1873,5.1868,5.1924,5.1918,5.211,5.2133,5.1962,5.1964,5.1965,0,5.1627,5.1673,5.1686,5.171,5.172,5.1759,5.1781,5.1761,5.1784,5.1805,5.1839,5.1875,5.1902,5.1966,5.1961,5.1992,5.1977,5.2042,5.1981,5.1986,5.1975,5.1971,5.1975,5.2054,5.2056,5.2057,5.2059,0,5.1782,5.1775,5.1808,5.184,5.1867,5.1891,5.1911,5.1932,5.1913,5.1941,5.1981,5.2002,5.2044,5.2079,5.2106,5.2111,5.2081,5.2078,5.2092,5.2098,5.21,5.2097,5.1903,5.2073,5.2072,5.2071,5.207,5.2069,5.1895,5.1933,5.1948,5.1986,5.1999,5.2019,5.2054,5.2053,5.2086,5.2119,5.2105,5.215,5.2163,5.2196,5.2206,5.2239,5.2214,5.2235,5.2239,5.2244,5.225,5.2097,5.2245,5.2244,5.2244,5.2243,5.2243,0,5.2046,5.2053,5.2089,5.2118,5.2148,5.2119,5.214,5.2166,5.2206,5.2222,5.2249,5.2294,5.2328,5.2326,5.2357,5.2384,5.2371,5.2393,5.2389,5.239,5.2273,5.2256,5.2403,5.2403,5.2403,5.2403,5.2403,5.2403,5.2128,5.219,5.2185,5.2253,5.226,5.2305,5.2319,5.2336,5.2348,5.2399,5.2428,5.2427,5.2435,5.2466,5.2495,5.2494,5.2505,5.2532,5.2525,5.2415,5.2399,5.2384,5.2368,5.2535,5.2536,5.2639,5.264,5.2641]}]]